Regional Weather Roundup
Issued by NWS Charleston, SC

Current Version | Previous Version | Graphics & Text | Print | Product List | Glossary On
Versions: 1 2 3 4 5 6 7 8 9 10 11 12 13 14 15 16 17 18 19 20 21 22 23 24 25 26 27 28 29 30 31 32 33 34 35 36 37 38 39 40 41 42 43 44 45 46 47 48 49 50
000 ASUS42 KCHS 310928 RWRCHS REGIONAL WEATHER ROUNDUP NATIONAL WEATHER SERVICE CHARLESTON SC 500 AM EDT TUE MAY 31 2016 NOTE: "FAIR" INDICATES FEW OR NO CLOUDS BELOW 12,000 FEET WITH NO SIGNIFICANT WEATHER AND/OR OBSTRUCTIONS TO VISIBILITY. NOT ALL STATIONS ARE QUALITY CONTROLLED. USE DATA WITH CAUTION... ESPECIALLY DEWPOINT OBSERVATIONS. SCZ027-030-031-034>040-042>050-311000- ...SOUTHEAST SOUTH CAROLINA... CITY SKY/WX TMP DP RH WIND PRES REMARKS N CHARLESTON MOCLDY 71 69 93 N6 29.87R WATERFRONT PRK N/A 71 70 96 VRB2 29.84F MOUNT PLEASANT PTSUNNY 72 72 100 NW3 29.87R JOHNS ISLAND CLOUDY 72 70 94 CALM 29.87R PINOPOLIS N/A 73 72 94 N9 29.80S MONCKS CORNER CLOUDY 68 66 94 N5 29.87S SUMMERVILLE FOG 70 70 100 CALM 29.89R VSB 3/4 BEAUFORT MCAS CLEAR 71 69 93 N3 29.87R BEAUFORT ARPT FAIR 72 70 94 CALM 29.87R HILTON HEAD IS CLEAR 72 72 100 CALM 29.89R FOG WALTERBORO SUNNY 70 70 100 W3 29.89R FOG ALLENDALE FOG 70 70 100 CALM 29.89R VSB 3/4 ...SOUTHERN MIDLANDS AND PEE DEE... CITY SKY/WX TMP DP RH WIND PRES REMARKS GEORGETOWN CLOUDY 68 68 100 CALM 29.87R KINGSTREE CLOUDY 70 68 94 CALM 29.88R FOG ORANGEBURG MOCLDY 70 69 97 N7 29.89S FOG BARNWELL FAIR 72 72 100 CALM 29.90S AIKEN FAIR 66 64 94 CALM 29.94S MANNING CLOUDY 68 68 100 N5 29.88S COLUMBIA CLOUDY 73 69 87 VRB3 29.90S SUMTER CLOUDY 71 69 95 N6 29.87S FLORENCE CLOUDY 72 70 93 N7 29.88F MYRTLE BEACH CLOUDY 72 63 73 N8 29.88S N MYRTLE BEACH CLOUDY 71 69 93 N6 29.86S $$ GAZ063-065-086>088-099>101-113>116-118-119-134>141-150-311000- ...SOUTHEAST GEORGIA... CITY SKY/WX TMP DP RH WIND PRES REMARKS SAVANNAH ARPT CLOUDY 71 68 90 N5 29.87S HUNTER AAF MOCLDY 72 72 100 VRB2 29.84S FORT STEWART CLEAR 70 67 89 CALM 29.85S STATESBORO CLEAR 67 67 100 CALM 29.89R SYLVANIA SUNNY 69 68 94 CALM 29.90R CLAXTON FAIR 67 67 100 CALM 29.88S ...CSRA...CENTRAL AND FAR SOUTHEAST GEORGIA... CITY SKY/WX TMP DP RH WIND PRES REMARKS THOMSON CLEAR 66 66 100 CALM 29.95F AUGUSTA-BUSH CLEAR 66 65 96 CALM 29.89F FOG AUGUSTA-DANIEL CLEAR 72 66 81 N7 29.91S SWAINSBORO FAIR 68 64 88 CALM 29.90S VIDALIA CLEAR 70 64 83 CALM 29.88F EASTMAN FAIR 66 66 100 CALM 29.91S HAZLEHURST FAIR 71 71 100 CALM 29.88S ALMA PTCLDY 69 67 93 CALM 29.88S WAYCROSS PTCLDY 68 68 98 CALM 29.88F JESUP FAIR 61 59 94 CALM 29.88S BAXLEY FAIR 70 68 94 CALM 29.88S BRUNSWICK PTCLDY 73 70 88 SW6 29.89R SAINT SIMONS CLEAR 72 68 87 SW9 29.87F $$ SCZ027-028-034-036>038-045-046-048>050-GAZ119-141-311000- ...LAKE AND SUPPLEMENTAL COASTAL OBSERVATIONS... STATION/POSITION TIME TEMP WIND PRES WAVE SWELL AIR SEA DIR/SP/G HT/PER HT/PER/DIR (UTC) (F) (DEG/KT/KT) (MB) (FT/S) (FT/S/D) WINYAH BAY 0800 71 340/ 5 1010.0S LAKE MURRAY 0800 69 360/ 2/ 4 1012.2S ACE BASIN NERRS 0800 71 CALM 1011.0F FORT PULASKI 0900 73 76 310/ 3/ 5 1011.7R SAPELO ISLAND 0900 74 230/ 7 1011.0F $$ ANZ835-935-AMZ111-154-330-350-352-354-370-450-454-472-311000- ...C-MAN AND BUOY OBSERVATIONS... STATION/POSITION TIME TEMP WIND PRES WAVE SWELL AIR SEA DIR/SP/G HT/PER HT/PER/DIR (UTC) (F) (DEG/KT/KT) (MB) (FT/S) (FT/S/D) BUOY 41004 0850 74 77 300/ 16/ 17 1010.0R 5/ 5 3/ 8 BUOY 41008 0850 76 77 250/ 16/ 17 1010.7S 3/ 8 2/100/ 8 FOLLY BEACH CMAN 0900 71 320/ 4/ 6 1011.4R CAPERS NEARSHORE 0908 72 76 330/ 12/ 14 1011.5R FRIPP NEARSHORE 0908 74 76 330/ 6/ 8 1010.8R STATION/POSITION TIME TEMP WIND PRES WAVE SWELL AIR SEA DIR/SP/G HT/PER HT/PER/DIR (UTC) (F) (DEG/KT/KT) (MB) (FT/S) (FT/S/D) 5E ST. MARYS GA 0901 78 N/A 3/ 8 FRYING PAN BUOY 0900 77 78 170/ 10/ 14 1010.4R BUOY 41025 0850 79 80 200/ 14/ 16 1012.2S 6/ 9 5/150/ 9 CAPE LOOKOUT NC 0900 75 120/ 9/ 9 1011.3F BUOY 41002 0850 75 76 140/ 12/ 14 1014.1F 4/ 8 3/ 90/ 8 BUOY 41010 0820 79 80 200/ 12/ 14 1013.2F ST AUGUSTINE FL 0900 71 79 250/ 6/ 9 1013.2R $$

USA.gov is the U.S. government's official web portal to all federal, state and local government web resources and services.